www.pogodaiklimat.ru

Погода и климат >> Архив погоды >> Бенин >> Котону


ПОГОДА в Котону

  • Прогноз погоды в Котону
  • Монитор погоды в Котону

АРХИВ ПОГОДЫ в Котону

Время (UTC), дата Ветер
(напр.,м/с)
 
Видим.   Явления Облачность Т
(С)
Тd
(С)
f
(%)
Тe
(С)
Тes
(С)
Комфортность P
(гПа)
Po
(гПа)
Тmin
(С)
Tmax
(С)
R
(мм)
R24
(мм)
S
(см)
12 15.05 Ю 3 8000 м гроза без осадков 9/4 360 м
[Cb cap Ac As Ci sp]
+29.0 +26.2 85 +44 +50 опасность
перегрева
1011.5 1010.4 0.1
15 15.05 ЮЗ 6 10 км {гроза} 9/8 360 м
[Cb cap Ac cuf Ci sp]
+31.5 +25.4 70 +46 +46 опасность
перегрева
1008.8 1007.7
18 15.05 ЮЗ 6 10 км 9/5 360 м
[Cu Sc Ac trans Ci sp]
+29.5 +26.0 81 +44 +44 опасность
перегрева
1010.5 1009.4 +32.0 0.9
21 15.05 СВ 3 6000 м гроза, ливневой дождь 10/9 330 м
[Cb cap Ac As]
+24.5 +23.0 91 +32 +32 очень
душно
1013.3 1012.2
00 16.05 С 2 8000 м гроза, ливневой дождь 10/5 360 м
[Cb cap Ac As]
+24.0 +23.1 95 +32 +32 очень
душно
1012.6 1011.5 36
03 16.05 С 3 8000 м гроза, ливневой дождь 9/5 360 м
[Cb cap Ac As]
+24.4 +22.5 89 +32 +32 очень
душно
1011.4 1010.3
06 16.05 С 1 8000 м {гроза, дождь} 9/4 360 м
[Cb cap Ac As Ci sp]
+23.5 +22.8 96 +31 +31 очень
душно
1011.8 1010.7 +23.5 37
09 16.05 Ю 2 10 км 9/0
[Ac trans Ci sp]
+27.4 +23.0 77 +37 +44 очень
душно
1012.8 1011.7
12 16.05 Ю 4 10 км 9/1 360 м
[Cu Sc Ac trans Ci sp]
+30.0 +23.6 69 +41 +48 опасность
перегрева
1012.0 1010.9
15 16.05 Ю 5 10 км 9/1 360 м
[Cu Sc Ac trans Ci sp]
+30.1 +24.1 70 +42 +44 опасность
перегрева
1010.5 1009.4
18 16.05 Ю 3 10 км 9/1 360 м
[Sc Ac trans Ci sp]
+29.4 +24.3 74 +41 +41 опасность
перегрева
1011.6 1010.5 +30.7
21 16.05 Ю 4 10 км 9/1 360 м
[Sc Ac trans Ci sp]
+29.5 +23.8 71 +40 +40 очень
душно
1013.6 1012.5
00 17.05 Ю 3 10 км 9/3 360 м
[Sc Ac trans Cs]
+28.8 +25.7 83 +43 +43 опасность
перегрева
1013.2 1012.1
03 17.05 С 1 8000 м 9/3 360 м
[Sc Ac trans Ci sp]
+27.4 +26.2 93 +41 +41 опасность
перегрева
1011.1 1010.0
06 17.05 штиль 0 4500 м дымка 9/1 300 м
[Cu Sc Ac trans Ci sp]
+26.5 +25.8 96 +39 +39 очень
душно
1010.6 1009.5 +26.4
09 17.05 С 2 6000 м 9/3 330 м
[Cu Sc Ac trans Ci sp]
+28.7 +26.3 87 +44 +48 опасность
перегрева
1013.3 1012.2
12 17.05 Ю 4 10 км 9/6 360 м
[Cu Sc Ac trans Ci sp]
+31.3 +26.0 74 +47 +50 опасность
перегрева
1011.9 1010.8
15 17.05 ЮЗ 4 10 км 9/5 360 м
[Cu Sc Ac trans Ci sp]
+32.0 +25.9 70 +47 +49 опасность
перегрева
1009.8 1008.7
18 17.05 Ю 5 10 км 9/3 360 м
[Cu Sc Ac cast Ci sp]
+30.3 +23.6 67 +41 +41 опасность
перегрева
1010.1 1009.0 +32.2
21 17.05 Ю 5 10 км 9/4 360 м
[Cu Sc Ci sp]
+29.5 +25.3 78 +43 +43 опасность
перегрева
1011.3 1010.2
00 18.05 Ю 3 10 км 6/3 330 м
[Cu Sc Ci sp]
+29.3 +25.2 79 +43 +43 опасность
перегрева
1010.5 1009.4
03 18.05 СЗ 1 10 км 6/3 330 м
[Sc Ci sp]
+27.8 +25.3 86 +40 +40 очень
душно
1008.7 1007.6
06 18.05 СЗ 1 8000 м 9/5 330 м
[Cu Sc Ac trans Ci sp]
+26.5 +25.4 94 +39 +39 очень
душно
1010.3 1009.2 +26.5
09 18.05 ЮЗ 2 10 км 9/4 360 м
[Cu Sc Ci sp]
+30.5 +25.6 75 +45 +51 опасность
перегрева
1011.6 1010.5
12 18.05 Ю 4 10 км 9/3 360 м
[Cu Sc Ci sp]
+31.6 +25.5 70 +46 +54 опасность
перегрева
1010.7 1009.6
15 18.05 ЮЗ 5 10 км 8/5 360 м
[Cu Sc Ci sp]
+32.0 +27.5 77 +51 +53 опасность
перегрева
1009.1 1008.0
18 18.05 ЮЗ 5 10 км 9/5 360 м
[Cu Sc Ci sp]
+30.5 +25.0 73 +44 +44 опасность
перегрева
1009.7 1008.6 +32.5
21 18.05 Ю 5 10 км 8/3 360 м
[Sc Ci sp]
+29.9 +25.0 75 +43 +43 опасность
перегрева
1011.4 1010.3
00 19.05 Ю 4 10 км 8/3 330 м
[Sc Ci sp]
+29.5 +25.1 77 +43 +43 опасность
перегрева
1011.3 1010.2
03 19.05 Ю 4 8000 м 8/3 330 м
[Sc Ci sp]
+29.4 +25.3 79 +43 +43 опасность
перегрева
1010.0 1008.9
06 19.05 ЮЗ 4 8000 м 9/5 330 м
[Cu Sc Ci sp]
+29.4 +25.2 78 +43 +43 опасность
перегрева
1010.8 1009.7 +29.1
09 19.05 6000 м гроза, ливневой дождь н/о +30.0 +25.8 78 +45 +45 опасность
перегрева
1013.2 1012.1
12 19.05 З 2 8000 м {гроза, дождь} 9/5 360 м
[Cb cap Ac trans Ci sp]
+30.5 +25.6 75 +45 +51 опасность
перегрева
1012.1 1011.0 30
15 19.05 Ю 5 10 км 9/4 360 м
[Cu Sc Ac trans Ci sp]
+30.9 +25.8 74 +46 +48 опасность
перегрева
1009.2 1008.1
18 19.05 ЮЗ 6 10 км 9/1 360 м
[Cu Sc Ac trans Ci sp]
+30.0 +24.5 72 +42 +42 опасность
перегрева
1008.9 1007.8 +31.7 30
21 19.05 ЮЗ 4 10 км 9/4 360 м
[Sc Ac trans Ci sp]
+29.6 +25.2 77 +43 +43 опасность
перегрева
1010.9 1009.8
00 20.05 ЮЗ 5 8000 м 9/5 360 м
[Cb cap Ac trans Ci sp]
+29.5 +25.3 78 +43 +43 опасность
перегрева
1011.3 1010.2
03 20.05 ЮЗ 5 8000 м зарница 9/6 330 м
[Cb cap Ci sp]
+29.5 +25.6 80 +44 +44 опасность
перегрева
1010.1 1009.0
06 20.05 СЗ 2 6000 м зарница 9/8 330 м
[Cb cap Ac trans Ci sp]
+27.1 +26.1 94 +41 +41 опасность
перегрева
1010.9 1009.8 +27.0 30
09 20.05 ЮЗ 4 1200 м гроза, ливневой дождь 10/8 330 м
[Cb cap Ac As]
+25.0 +24.3 96 +35 +35 очень
душно
1014.4 1013.3
12 20.05 СЗ 2 8000 м гроза, ливневой дождь 9/3 330 м
[Cb cap Ac As]
+26.0 +24.6 92 +37 +42 очень
душно
1012.7 1001.1 63
15 20.05 ЮЗ 4 10 км {гроза, дождь} 9/5 360 м
[Cu Sc Ac trans Ci sp]
+27.7 +25.6 88 +41 +43 опасность
перегрева
1010.0 1008.9
18 20.05 З 2 10 км {гроза, дождь} 9/6 360 м
[Cu Sc Ac As]
+27.2 +24.5 85 +38 +38 очень
душно
1009.9 1008.8 +28.0 64
21 20.05 З 2 8000 м 9/1 360 м
[Sc Ac trans Ci sp]
+26.0 +25.3 96 +38 +38 очень
душно
1011.4 1010.3
00 21.05 СЗ 2 8000 м 8/0 300 м
[Ac As Cs]
+25.6 +24.2 92 +35 +35 очень
душно
1012.8 1011.7
03 21.05 СЗ 2 8000 м 9/1 330 м
[Sc Ac trans Ci sp]
+25.3 +23.9 92 +35 +35 очень
душно
1010.3 1009.2
06 21.05 СЗ 2 8000 м 9/3 330 м
[Cb calv Ac As Ci sp]
+24.7 +23.7 94 +34 +34 очень
душно
1011.1 1010.0 +24.4 64
09 21.05 СЗ 2 10 км 9/3 360 м
[Cu Sc Ac trans Ci sp]
+28.3 +24.8 81 +40 +45 очень
душно
1013.6 1021.5
12 21.05 С 4 10 км 9/5 360 м
[Cu Sc Ac trans Ci sp]
+29.9 +24.7 74 +43 +47 опасность
перегрева
1013.1 1012.0
15 21.05 С 2 10 км 9/1 360 м
[Cu Sc Ac As Ci sp]
+30.0 +24.3 72 +42 +47 опасность
перегрева
1010.4 1009.3
18 21.05 Ю 4 10 км 9/3 360 м
[Cu Sc Ac lent Ci sp]
+28.7 +25.2 81 +42 +42 опасность
перегрева
1009.0 1007.9 +30.1
21 21.05 ЮЗ 1 10 км 6/3 360 м
[Sc Ci sp]
+28.2 +25.4 85 +41 +41 опасность
перегрева
1011.4 1010.3
00 22.05 СВ 1 10 км 8/5 360 м
[Sc Ci sp]
+26.8 +25.2 91 +39 +39 очень
душно
1011.6 1010.5
03 22.05 С 1 6000 м в посл. час дождь 9/5 330 м
[Sc Ac As Ci sp]
+27.0 +26.0 94 +40 +40 очень
душно
1010.2 1009.1
06 22.05 С 2 4000 м зарница {дождь} 9/4 330 м
[Cb cap Ac trans Ci sp]
+26.3 +25.5 95 +38 +38 очень
душно
1010.8 1009.7 +26.0 0.2
09 22.05 штиль 0 8000 м гроза без осадков 9/5 330 м
[Cb cap Ac As Ci sp]
+28.0 +25.8 88 +42 +46 опасность
перегрева
1013.3 1012.2

 

Местоположение метеостанции Котону (Бенин): широта 6.35 долгота 2.38 высота над уровнем моря 9 м.

В архиве по умолчанию представлена погода в Котону за последнюю неделю. Архивные данные за месяц целиком и за предыдущие месяцы, начиная с января 2011 года, Вы можете получить, выбрав интересующий диапазон дат из раскрывающегося списка и нажав кнопку "Ввод!".


*Определитесь, кто Вы:
робот инопланетянин человек

Внимание! Время в таблицах - всемирное. Для получения местного времени необходимо прибавить поправку, которая равна 1 ч.

Смотрите также архив погоды в соседних городах и на ближайших метеорологических станциях:

Погода в Боиконе (Бенин) (97 км)
Погода в Таблигбо (Того) (101 км)
Погода в Лагосе (Нигерия) (108 км)
Погода в Лагосе Ошоди (Нигерия) (112 км)
Погода в Ломе (Того) (127 км)
Погода в Акатзи (Гана) (177 км)
Погода в Иджебу-Оде (Нигерия) (179 км)
Погода в Саве (Бенин) (187 км)
Погода в Атакпаме (Того) (195 км)
Погода в Ада (Гана) (204 км)

Пояснения к столбцам:

Ветер - указаны скорость ветра в м/с - средняя за 10 мин, порывы в срок и между сроками (в фигурных скобках) и направление, откуда дует ветер: С - северный, СВ - северо-восточный, В - восточный, ЮВ - юго-восточный, Ю - южный, ЮЗ - юго-западный, З - западный, СЗ - северо-западный.
Видимость - горизонтальная дальность видимости в метрах или километрах. При видимости от 1 до 10 км при отсутствии осадков обычно наблюдается дымка, при ухудшении видимости до 1 км и менее - туман. В сухую погоду видимость может ухудшаться дымом, пылью или мглою.
Явления - указаны атмосферные явления, наблюдавшиеся в срок или в последний час перед сроком; фигурными скобками обозначены явления, наблюдавшиеся между сроками (за 1-3 часа до срока); квадратными скобками обозначены град или гололедные отложения с указанием их диаметра в мм.
Облачность - указаны через наклонную черту общая и нижняя облачность в баллах и высота нижней границы облаков в метрах; квадратными скобками обозначены формы облаков: Ci - перистые, Cs - перисто-слоистые, Cc - перисто-кучевые, Ac - высококучевые, As - высокослоистые, Sc - слоисто-кучевые, Ns - слоисто-дождевые, Cu - кучевые, Cb - кучево-дождевые. Подробнее классификацию облаков см. в Атласе облаков (PDF).
T - Температура воздуха - температура, измеренная на высоте 2 м над землей.
Td - Температура точки росы - температура, при понижении до которой содержащийся в воздухе водяной пар достигнет насыщения.
f - Относительная влажность воздуха - влажноcть воздуха, измеренная на высоте 2 м над землей.
Te - Эффективная температура - температура, которую ощущает одетый по сезону человек в тени. Характеристика душности погоды. При расчете учитывается влияние влажности воздуха и скорости ветра на теплоощущения человека.
Tes - Эффективная температура на солнце - температура, которую ощущает человек, с поправкой на солнечный нагрев. Характеристика знойности погоды. Зависит от высоты солнца над горизонтом, облачности и скорости ветра. Ночью, в пасмурную погоду, а также при ветре 12 м/с и более поправка равна нулю.
P - Атмосферное давление - приведенное к уровню моря атмосферное давление.
Po - Атмосферное давление - измеренное на уровне метеостанции атмосферное давление.
Tmin - Минимальная температура - минимум температуры воздуха на высоте 2 м над землей.
Tmax - Максимальная температура - максимум температуры воздуха на высоте 2 м над землей.
R - Количество осадков - Количество выпавших осадков за период времени, мм. При наведении курсора мыши на число - период времени, за который выпало указанное количество осадков.
R24 - Количество осадков - Количество выпавших осадков за 24 часа, мм.
S - Снежный покров - Высота снежного покрова, см. При наведении курсора мыши на число - состояние снежного покрова и степень покрытия местности в баллах.